Location: Marcé
(47.5801°N, 0.3280°W)
Time: 08:18:30
(UTC+01:00)

Tiros 1 despin weight - Pass Details

Date: 10 December 2021
Orbit: 592 x 641 km, 48.2° (Epoch: 25 January)

Event Time Altitude Azimuth Distance (km) Brightness Sun altitude
Rises 14:35:33 0° 273° (W) 2,842 ? 15.9°
Reaches altitude 10° 14:37:51 10° 274° (W) 1,934 ? 15.7°
Maximum altitude 14:42:17 82° 2° (N) 604 ? 15.4°
Drops below altitude 10° 14:46:42 10° 91° (E) 1,922 ? 15.1°
Sets 14:48:59 0° 92° (E) 2,822 ? 14.9°
